User: anonymous   Login
Location: Unspecified
(0.0000°N, 0.0000°E)
Time: 08:57:14
(UTC+00:00)
Language:

PAYLOAD C - Orbit

View from above orbital plane
View from above orbital plane
View from above satellite
View from above satellite

Ground track
Ground track

The orbit data is extracted from the following two-line orbital elements,

1 27842U 03031C   17204.76287778 +.00000020 +00000-0 +28945-4 0  9990
2 27842 098.6823 212.0088 0008574 209.0652 151.0050 14.22111918729640
Epoch (UTC): 23 July 2017 18:18:32
Eccentricity: 0.0008574
inclination: 98.6823°
perigee height: 812 km
apogee height: 824 km
right ascension of ascending node: 212.0088°
argument of perigee: 209.0652°
revolutions per day: 14.22111918
mean anomaly at epoch: 151.0050°
orbit number at epoch: 72964

The dashed part of the orbit path shows where the satellite is in the earth's shadow,  

DLR